Location: Arbon
(43.0005°N, 0.7472°E)
Time: 15:21:57
(UTC+00:00)

Envisat - Pass Details

Date: 28 October 2020
Orbit: 764 x 766 km, 98.1° (Epoch: 30 November)

Event Time Altitude Azimuth Distance (km) Brightness Sun altitude
Rises 04:43:20 0° 30° (NNE) 3,240 6.7 -19.5°
Reaches altitude 10° 04:46:28 10° 50° (NE) 2,308 6.2 -18.9°
Maximum altitude 04:49:45 17° 91° (E) 1,859 6.1 -18.3°
Drops below altitude 10° 04:53:00 10° 131° (SE) 2,296 6.2 -17.7°
Sets 04:56:05 0° 151° (SSE) 3,216 6.7 -17.1°
